Regional Weather Roundup
Issued by NWS

Home | Current Version | Previous Version | Graphics & Text | Print | Product List | Glossary On
Versions: 1 2 3 4 5 6 7 8 9 10 11 12 13 14 15 16 17 18 19 20 21 22 23 24 25 26 27 28 29 30 31 32 33 34 35 36 37 38 39 40 41 42 43 44 45 46 47 48 49 50
000
ASUS45 KABQ 251201
RWRNM
NEW MEXICO REGIONAL WEATHER ROUNDUP
NATIONAL WEATHER SERVICE ALBUQUERQUE NM
600 AM MDT MON JUL 25 2016

NOTE: "FAIR" MEANS FEW OR NO CLOUDS BELOW 12,000 FEET AGL WITH NO
       SIGNIFICANT WEATHER OR OBSTRUCTIONS TO VISION.

      THIS PRODUCT IS RELEASED AS TWO VERSIONS.  ONE VERSION NEAR
      THE TOP OF THE HOUR CONTAINING PRELIMINARY DATA FROM ALBUQUERQUE
      AND OTHER STATIONS.  A FINAL VERSION WITH ADDITIONAL DATA IS
      ISSUED ABOUT 10 MINUTES AFTER THE HOUR.

NMZ501-503-504-510>518-251300-
NORTHWEST PLATEAU/NORTHCENTRAL MOUNTAINS

CITY           SKY/WX    TMP DP  RH WIND       PRES   REMARKS
FARMINGTON     FAIR      71  47  42 E9        30.22R
6HR MIN TEMP:  71; 6HR MAX TEMP:  79;

LOS ALAMOS     FAIR      66  49  54 CALM      30.40R
SANTA FE       FAIR      64  51  62 NE8       30.33R
6HR MIN TEMP:  64; 6HR MAX TEMP:  71;

TAOS           FAIR      55  36  47 E9        30.40S
ANGEL FIRE     MOCLDY    45  44  95 CALM      30.51R

$$
NMZ402-403-502-505>509-251300-
WESTCENTRAL MOUNTAINS/SOUTHWEST MOUNTAINS

CITY           SKY/WX    TMP DP  RH WIND       PRES   REMARKS
GALLUP         FAIR      65  50  58 CALM      30.29R
6HR MIN TEMP:  64; 6HR MAX TEMP:  70;

GRANTS         FAIR      60  55  82 CALM      30.35R
SILVER CITY    FAIR      70  53  54 N3        30.21S

$$
NMZ407-409-411-412-251300-
SOUTHERN DESERTS

CITY           SKY/WX    TMP DP  RH WIND       PRES   REMARKS
LORDSBURG      FAIR      72  54  53 W5        30.13F
DEMING         FAIR      73  58  59 W5        30.13S
6HR MIN TEMP:  71; 6HR MAX TEMP:  78;

LAS CRUCES     FAIR      72  55  54 N7        30.12S
ALAMOGORDO     FAIR      68  55  64 E3        30.11F
T OR C         FAIR      75  52  44 NW6       30.16S
6HR MIN TEMP:  75; 6HR MAX TEMP:  81;


$$
NMZ519>523-251300-
CENTRAL VALLEYS/CENTRAL HIGHLANDS

CITY           SKY/WX    TMP DP  RH WIND       PRES   REMARKS
ALBUQUERQUE    FAIR      71  56  58 E3        30.25R
6HR MIN TEMP:  67; 6HR MAX TEMP:  76;

DOUBLE EAGLE   PTCLDY    81  52  36 N7        30.29R
MORIARTY ARPT  FAIR      60  55  84 N5        30.34R
6HR MIN TEMP:  60; 6HR MAX TEMP:  65;

CLINES CORNERS FAIR      63  52  67 E7        30.38R
6HR MIN TEMP:  62; 6HR MAX TEMP:  67; 6HR PCP: TRACE;

BELEN          FAIR      69  56  63 N7        30.23R
6HR MIN TEMP:  68; 6HR MAX TEMP:  75; 6HR PCP:  0.04;

SOCORRO        FAIR      71  53  52 CALM      30.19R
6HR MIN TEMP:  71; 6HR MAX TEMP:  77;


$$
NMZ524>526-539-540-251300-
SOUTHCENTRAL MOUNTAINS

CITY           SKY/WX    TMP DP  RH WIND       PRES   REMARKS
RUIDOSO        NOT AVBL

$$
NMZ527>531-251300-
NORTHEAST HIGHLANDS/NORTHEAST PLAINS

CITY           SKY/WX    TMP DP  RH WIND       PRES   REMARKS
LAS VEGAS      FAIR      54  51  90 NE8       30.38R
6HR MIN TEMP:  53; 6HR MAX TEMP:  63;

RATON          FAIR      53  51  93 CALM      30.34R
6HR MIN TEMP:  53; 6HR MAX TEMP:  61;

CLAYTON        FAIR      62  61  96 NW7       30.24S
6HR MIN TEMP:  62; 6HR MAX TEMP:  67;


$$
NMZ532>537-251300-
EASTCENTRAL PLAINS

CITY           SKY/WX    TMP DP  RH WIND       PRES   REMARKS
TUCUMCARI      FAIR      68  59  73 N7        30.18R
6HR MIN TEMP:  67; 6HR MAX TEMP:  73;

CANNON AFB     FAIR      69  59  72 NE7       30.17S
6HR MIN TEMP:  68; 6HR MAX TEMP:  74;

CLOVIS AIRPORT FAIR      66  55  68 N7        30.17S

$$
NMZ028-029-538-251300-
SOUTHEAST PLAINS

CITY           SKY/WX    TMP DP  RH WIND       PRES   REMARKS
ROSWELL        FAIR      74  54  49 NW7       30.10S
6HR MIN TEMP:  74; 6HR MAX TEMP:  82;

ARTESIA        FAIR      73  55  53 NW7       30.09S
CARLSBAD       FAIR      75  53  46 W8        30.06R
6HR MIN TEMP:  75; 6HR MAX TEMP:  84;

HOBBS          CLEAR     73  55  53 CALM      30.12R


$$



USA.gov is the U.S. government's official web portal to all federal, state and local government web resources and services.